Total_Precipitation_Accumulation
0.38 0.33 0.31 0.28 0.24 0.20 0.20 0.21 0.24 0.24 0.23 0.20 0.16 0.13 0.12 0.12 0.10 0.09 0.08 0.09 0.09 0.09 0.11 0.14 0.20 0.22 0.11 0.06 0.01 0.00 0.00 0.00 0.00 0.00 0.00 0.00 0.00 0.00 0.01 0.00 0.00 0.00 0.00 0.00 0.00 0.01 0.00
0.43 0.37 0.31 0.29 0.28 0.27 0.25 0.24 0.22 0.21 0.20 0.20 0.20 0.17 0.15 0.14 0.14 0.13 0.11 0.09 0.10 0.12 0.15 0.21 0.36 0.45 0.25 0.13 0.00 0.00 0.00 0.00 0.00 0.00 0.00 0.00 0.00 0.00 0.01 0.00 0.00 0.00 0.00 0.00 0.00 0.00 0.00
0.53 0.47 0.41 0.41 0.38 0.34 0.32 0.31 0.31 0.27 0.23 0.18 0.19 0.19 0.20 0.18 0.17 0.17 0.15 0.12 0.10 0.12 0.17 0.28 0.56 0.76 0.59 0.16 0.00 0.00 0.00 0.00 0.00 0.00 0.00 0.00 0.00 0.00 0.00 0.00 0.00 0.00 0.00 0.00 0.04 0.02 0.00
0.59 0.55 0.52 0.50 0.43 0.40 0.34 0.34 0.36 0.37 0.34 0.28 0.23 0.22 0.22 0.23 0.22 0.20 0.19 0.17 0.18 0.17 0.24 0.37 0.68 0.87 0.63 0.04 0.00 0.00 0.00 0.00 0.00 0.00 0.00 0.00 0.00 0.00 0.00 0.00 0.00 0.00 0.00 0.00 0.05 0.01 0.00
0.81 0.66 0.58 0.53 0.52 0.49 0.44 0.38 0.38 0.37 0.40 0.48 0.45 0.38 0.33 0.33 0.32 0.31 0.33 0.33 0.29 0.33 0.53 0.86 1.12 1.12 0.51 0.02 0.00 0.00 0.02 0.03 0.02 0.01 0.00 0.00 0.01 0.01 0.00 0.01 0.00 0.00 0.00 0.00 0.00 0.00 0.00
0.99 0.85 0.71 0.62 0.56 0.52 0.55 0.57 0.55 0.50 0.44 0.41 0.50 0.60 0.56 0.53 0.56 0.52 0.45 0.44 0.47 0.71 0.95 1.67 2.11 1.90 0.58 0.02 0.02 0.07 0.11 0.12 0.08 0.14 0.09 0.01 0.04 0.05 0.02 0.02 0.02 0.01 0.00 0.00 0.00 0.02 0.00
1.25 1.03 0.83 0.75 0.66 0.65 0.68 0.66 0.63 0.56 0.57 0.62 0.65 0.66 0.77 0.85 0.93 0.93 0.89 1.02 1.13 1.19 1.16 1.13 1.32 1.16 0.37 0.15 0.18 0.16 0.23 0.59 0.41 0.27 0.39 0.14 0.24 0.31 0.09 0.04 0.02 0.01 0.00 0.00 0.00 0.00 0.00
1.81 1.61 1.53 1.26 1.03 0.93 0.88 0.88 0.84 0.76 0.78 0.72 0.70 0.86 0.93 1.06 1.47 1.70 1.70 1.39 0.73 0.43 0.54 0.22 0.20 0.40 0.32 0.26 0.46 0.19 0.27 1.04 1.40 0.94 0.42 0.37 0.49 0.31 0.16 0.11 0.06 0.04 0.02 0.00 0.00 0.00 0.00
2.50 2.45 2.27 2.02 1.76 1.59 1.39 1.15 1.02 0.89 0.77 0.78 0.83 0.90 1.12 1.57 1.90 2.27 1.86 0.96 0.26 0.42 1.27 0.54 0.06 0.05 0.06 0.25 0.49 0.22 0.29 0.79 1.20 1.05 0.49 0.53 0.46 0.20 0.18 0.21 0.20 0.10 0.06 0.02 0.00 0.00 0.00
2.65 2.43 2.35 2.24 2.03 1.77 1.53 1.30 1.12 1.02 0.98 0.89 0.85 1.01 1.44 2.19 3.08 1.95 1.61 0.55 0.40 1.25 3.54 1.68 0.20 0.04 0.01 0.19 0.61 0.15 0.28 0.59 0.99 0.92 0.49 0.51 0.29 0.15 0.26 0.32 0.27 0.22 0.02 0.01 0.01 0.04 0.07
2.69 2.58 2.46 2.24 2.08 1.88 1.56 1.37 1.17 1.12 1.06 1.02 1.02 1.15 1.68 2.19 1.92 1.46 0.78 0.46 1.21 3.31 6.33 1.72 0.11 0.02 0.01 0.08 0.23 0.10 0.15 0.51 0.73 0.58 0.85 1.20 0.29 0.13 0.15 0.26 0.18 0.27 0.02 0.01 0.03 0.05 0.08
2.26 2.36 2.38 2.37 2.30 2.21 2.01 1.88 1.75 1.45 1.26 1.33 1.32 1.47 1.79 2.16 2.54 1.43 0.72 1.01 3.26 6.76 5.90 1.05 0.04 0.07 0.09 0.07 0.06 0.07 0.29 0.68 0.78 0.80 1.00 1.11 0.35 0.27 0.27 0.06 0.06 0.21 0.13 0.10 0.13 0.26 0.35
2.23 2.40 2.39 2.23 2.18 2.14 2.13 2.14 2.30 2.20 2.11 2.07 2.04 2.04 1.85 1.58 2.06 1.64 1.67 2.83 6.54 7.19 2.34 0.49 0.08 0.09 0.12 0.11 0.12 0.08 0.39 0.88 1.30 1.72 1.38 0.76 0.46 0.30 0.28 0.26 0.11 0.31 0.79 1.17 0.93 0.84 0.73
2.23 2.12 2.09 2.08 2.08 2.00 2.03 2.12 2.23 2.61 2.66 2.74 2.87 2.86 2.50 2.07 1.65 2.24 3.70 5.82 7.29 3.21 1.05 0.18 0.02 0.02 0.15 0.28 0.36 0.32 0.54 1.01 0.98 1.14 1.03 0.66 0.49 0.35 0.38 0.50 0.29 0.40 0.85 1.90 1.64 0.58 0.27
2.61 2.29 2.19 1.89 1.76 1.77 1.97 2.07 2.25 2.56 2.96 3.11 3.55 3.78 3.77 3.39 2.43 3.03 5.01 8.14 4.87 1.42 0.48 0.22 0.07 0.13 0.12 0.24 0.55 0.64 0.65 0.92 1.26 1.33 1.68 1.19 0.69 0.22 0.21 0.15 0.21 0.56 1.12 0.93 1.31 0.69 0.49
3.18 2.69 2.35 2.17 1.72 1.78 1.71 1.91 2.11 2.26 2.72 3.18 3.59 3.95 3.49 2.81 3.42 4.96 6.79 5.70 2.48 0.61 0.15 0.13 0.30 0.32 0.17 0.13 0.38 0.66 1.14 1.14 0.84 1.03 1.57 1.41 1.03 0.22 0.21 0.36 0.73 1.13 1.12 1.60 2.86 2.80 1.44
3.74 3.10 2.64 2.44 2.23 2.04 1.99 1.94 2.38 2.57 2.51 3.56 4.24 4.69 2.83 2.76 5.80 8.84 8.21 3.92 1.29 0.28 0.12 0.26 0.32 0.37 0.22 0.29 0.33 0.61 1.08 1.08 0.69 0.65 0.91 1.68 1.93 0.59 0.67 1.18 1.16 1.84 2.24 2.72 3.14 2.30 1.72
3.58 3.66 3.01 2.56 2.46 2.26 2.46 2.28 2.60 2.60 3.41 5.02 5.37 5.14 2.57 3.40 7.00 7.98 5.05 2.01 0.75 0.16 0.08 0.21 0.26 0.43 0.36 0.22 0.31 0.54 0.88 0.74 0.40 0.41 0.62 1.20 2.04 0.87 0.46 0.85 0.64 0.75 1.43 2.04 3.64 2.82 1.67
3.38 3.56 3.85 3.17 2.65 2.48 2.54 2.91 2.72 2.85 3.69 4.84 6.44 4.69 4.34 4.95 5.86 3.95 2.10 1.25 0.66 0.28 0.20 0.29 0.36 0.36 0.49 0.28 0.52 0.29 0.39 0.22 0.12 0.32 0.75 0.93 1.98 1.86 0.82 1.10 1.50 1.76 1.88 2.05 2.48 2.30 1.72
3.63 3.51 3.42 3.81 3.30 2.94 2.85 2.92 3.22 3.33 3.97 5.11 6.92 7.29 7.83 8.31 4.13 1.93 1.72 1.61 1.15 0.44 0.30 0.30 0.42 0.37 0.46 0.69 0.68 0.46 0.24 0.25 0.12 0.18 0.42 1.15 1.81 1.67 1.66 1.39 1.63 1.81 1.39 1.49 2.14 2.74 1.61
3.73 3.62 3.61 3.74 4.03 3.54 3.13 3.43 3.70 3.99 5.19 7.90 8.66 5.52 3.59 4.97 4.00 1.95 1.34 1.39 0.98 0.75 0.43 0.39 0.53 0.39 0.59 0.79 0.68 0.75 0.59 0.27 0.22 0.21 0.32 1.04 1.97 1.37 0.94 0.44 0.40 0.61 0.82 0.86 1.48 1.31 1.35
3.77 3.69 3.75 3.83 4.49 4.63 4.40 4.18 4.49 4.67 6.29 9.71 8.24 3.84 2.02 1.06 0.77 1.38 1.60 1.47 0.86 0.66 0.71 0.71 0.71 0.39 0.44 0.86 0.82 0.77 0.89 1.04 0.63 0.51 0.75 1.18 1.60 0.85 0.68 0.30 0.37 0.58 0.74 0.78 0.81 0.65 0.47
4.26 4.00 3.87 3.95 4.48 5.00 5.36 4.82 4.45 5.00 7.95 10.92 5.36 1.74 2.51 2.13 1.37 1.99 1.58 0.90 0.57 0.44 0.52 0.36 0.50 0.63 0.61 0.53 0.55 0.67 0.67 1.00 1.39 1.17 1.06 1.29 1.76 1.68 1.29 0.37 0.82 1.75 0.79 0.71 1.36 0.77 0.77
4.97 4.52 4.10 4.20 4.37 4.67 4.66 4.50 4.17 4.91 6.20 6.32 2.88 1.95 3.63 3.43 1.46 1.07 0.68 0.54 0.44 0.46 0.68 0.36 0.32 0.60 0.58 0.28 0.56 0.89 0.84 0.87 0.84 0.99 1.25 1.25 1.47 2.22 1.74 1.00 2.35 1.08 0.19 0.21 0.70 1.17 0.95
4.76 4.20 3.70 3.59 3.82 4.08 4.43 4.02 3.90 4.54 4.87 4.38 2.76 3.08 3.92 3.26 1.46 0.83 0.72 0.89 0.82 0.69 0.74 0.77 0.57 0.44 0.61 0.79 2.06 2.42 2.11 1.84 1.32 0.73 0.64 1.09 1.46 2.50 2.16 1.36 0.84 0.45 0.22 0.11 0.23 0.62 0.36
4.40 4.46 3.90 3.52 3.43 3.19 3.50 4.08 3.35 3.89 4.68 4.36 3.26 3.35 4.39 3.91 1.81 0.82 0.90 0.82 1.31 1.59 1.47 1.20 0.79 0.66 1.34 2.70 3.51 2.95 1.87 1.37 1.24 1.02 0.76 0.72 1.21 2.06 2.02 1.93 1.09 0.54 0.08 0.03 0.20 0.94 0.50
3.56 4.04 3.82 3.47 3.30 2.90 2.62 3.50 3.42 3.34 4.62 4.83 3.64 2.98 4.69 5.00 1.60 1.18 1.34 1.18 1.23 1.50 2.12 1.66 1.72 2.03 2.64 4.14 3.70 2.00 1.26 0.82 1.12 1.14 1.20 1.60 2.12 2.64 1.88 1.67 0.78 0.22 0.07 0.14 0.95 1.37 0.67
3.29 3.18 3.69 3.66 3.20 2.91 2.59 2.87 3.00 3.18 3.88 5.16 4.82 3.29 4.48 4.90 2.08 1.14 1.16 0.95 1.26 1.63 2.51 2.18 2.63 2.96 3.58 4.03 3.42 2.62 1.58 1.05 0.86 0.76 0.89 1.35 2.18 2.41 2.54 2.73 1.50 0.25 0.23 0.62 0.67 0.38 0.89
3.14 3.02 3.05 2.94 3.00 2.90 2.55 2.62 2.82 2.86 3.35 4.53 5.91 4.18 3.95 6.25 3.47 1.15 0.87 0.73 0.66 0.93 1.46 2.50 2.55 2.06 2.82 3.21 2.79 2.34 2.16 1.68 1.06 1.08 1.07 1.37 1.53 1.64 1.76 1.67 0.78 0.31 0.34 0.36 0.34 0.58 1.07